Weather History for Pine Belt, MS

Change the Weather History Date:

Monday, February 17, 2014

  Actual Average Record
Temperature  
Mean Temperature 60 °F -  
Max Temperature 77 °F 62 °F 77 °F (2000)
Min Temperature 42 °F 40 °F 26 °F (2013)
Degree Days  
Heating Degree Days 6    
Growing Degree Days 10 (Base 50)    
Moisture  
Dew Point 5 °F    
Average Humidity 11    
Maximum Humidity 12    
Minimum Humidity 10    
Precipitation  
Precipitation 0.00 in - - ()
Sea Level Pressure  
Sea Level Pressure 30.12 in    
Wind  
Wind Speed 4 mph (SSW)    
Max Wind Speed 14 mph    
Max Gust Speed 23 mph    
Visibility 7 miles    
Events      
Averages and records for this station are not official NWS values.
T = Trace of Precipitation, MM = Missing Value Source: NWS Daily Summary

Daily Weather History Graph

Daily Weather History Graph

Search for Another Location

Airport:

Trip Planner

Search our weather history database for the weather conditions in past years. The results will help you decide how hot, cold, wet, or windy it might be!

Date:

Astronomy

Feb. 17, 2014 Rise Set
Actual Time 6:36 AM CST 5:46 PM CST
Civil Twilight 6:12 AM CST 6:10 PM CST
Nautical Twilight 5:43 AM CST 6:39 PM CST
Astronomical Twilight 5:15 AM CST 7:07 PM CST
Moon 8:26 PM CST (2/17) 7:49 AM CST (2/17)
Length of Visible Light 11h 58m
Length of Day
11h 09m
Waning Gibbous, 93% of the Moon is Illuminated
Feb 17
Waning Gibbous
Feb 22
Last Quarter
Mar 1
New
Mar 8
First Quarter
Mar 16
Full

Hourly Weather History & Observations

Time (CST) Temp. Dew Point Humidity Pressure Visibility Wind Dir Wind Speed Gust Speed Precip Events Conditions
12:15 AM 48.2 °F -4.0 °F 11% 30.11 in 10.0 mi South 6.9 mph - N/A   Clear
12:35 AM 48.2 °F -4.0 °F 11% 30.11 in 10.0 mi South 4.6 mph - N/A   Clear
12:55 AM 48.2 °F -4.0 °F 11% 30.12 in 10.0 mi South 3.5 mph - N/A   Clear
1:15 AM 48.2 °F -4.0 °F 11% 30.12 in 4.0 mi Calm Calm - N/A   Clear
1:35 AM 46.4 °F -5.8 °F 11% 30.12 in 3.0 mi Calm Calm - N/A   Clear
1:55 AM 46.4 °F -5.8 °F 11% 30.12 in 0.2 mi Calm Calm - N/A   Unknown
2:15 AM 46.4 °F -5.8 °F 11% 30.11 in 0.2 mi Calm Calm - N/A   Unknown
2:35 AM 44.6 °F -5.8 °F 12% 30.12 in 0.2 mi Calm Calm - N/A   Unknown
2:55 AM 44.6 °F -5.8 °F 12% 30.12 in 0.2 mi Calm Calm - N/A   Unknown
3:15 AM 44.6 °F -7.6 °F 11% 30.12 in 0.2 mi Calm Calm - N/A   Unknown
3:35 AM 44.6 °F -7.6 °F 11% 30.12 in 0.2 mi Calm Calm - N/A   Unknown
3:55 AM 44.6 °F -7.6 °F 11% 30.12 in 0.2 mi Calm Calm - N/A   Mostly Cloudy
4:15 AM 44.6 °F -7.6 °F 11% 30.12 in 0.2 mi Calm Calm - N/A   Overcast
4:35 AM 42.8 °F -7.6 °F 12% 30.13 in 0.2 mi Calm Calm - N/A   Overcast
4:55 AM 42.8 °F -7.6 °F 12% 30.13 in 0.2 mi Calm Calm - N/A   Overcast
5:15 AM 44.6 °F -7.6 °F 11% 30.13 in 0.5 mi Calm Calm - N/A   Overcast
5:35 AM 44.6 °F -5.8 °F 12% 30.13 in 0.5 mi Calm Calm - N/A   Overcast
5:55 AM 44.6 °F -5.8 °F 12% 30.12 in 0.2 mi Calm Calm - N/A   Overcast
6:15 AM 46.4 °F -5.8 °F 11% 30.12 in 0.5 mi Calm Calm - N/A   Overcast
6:35 AM 46.4 °F -5.8 °F 11% 30.12 in 0.5 mi Calm Calm - N/A   Overcast
6:55 AM 48.2 °F -4.0 °F 11% 30.12 in 1.8 mi SSE 3.5 mph - N/A   Overcast
7:15 AM 48.2 °F -4.0 °F 11% 30.12 in 3.0 mi SSE 3.5 mph - N/A   Mostly Cloudy
7:35 AM 51.8 °F -2.2 °F 11% 30.13 in 2.5 mi South 4.6 mph - N/A   Mostly Cloudy
7:55 AM 51.8 °F -0.4 °F 12% 30.13 in 5.0 mi SSE 3.5 mph - N/A   Overcast
8:15 AM 53.6 °F -0.4 °F 11% 30.14 in 5.0 mi South 3.5 mph - N/A   Overcast
8:35 AM 55.4 °F 1.4 °F 11% 30.14 in 10.0 mi South 5.8 mph - N/A   Overcast
8:55 AM 57.2 °F 3.2 °F 11% 30.15 in 10.0 mi South 9.2 mph - N/A   Overcast
9:15 AM 60.8 °F 6.8 °F 12% 30.14 in 10.0 mi South 11.5 mph - N/A   Overcast
9:35 AM 62.6 °F 6.8 °F 11% 30.15 in 10.0 mi South 10.4 mph - N/A   Overcast
9:55 AM 64.4 °F 8.6 °F 11% 30.14 in 10.0 mi South 10.4 mph - N/A   Overcast
10:15 AM 66.2 °F 8.6 °F 11% 30.15 in 10.0 mi South 8.1 mph - N/A   Overcast
10:35 AM 68.0 °F 10.4 °F 11% 30.15 in 10.0 mi SW 5.8 mph - N/A   Overcast
10:55 AM 69.8 °F 10.4 °F 10% 30.14 in 10.0 mi SSW 12.7 mph 17.3 mph N/A   Overcast
11:15 AM 69.8 °F 12.2 °F 11% 30.15 in 10.0 mi SW 6.9 mph 16.1 mph N/A   Overcast
11:35 AM 71.6 °F 12.2 °F 10% 30.15 in 10.0 mi SW 9.2 mph - N/A   Overcast
11:55 AM 71.6 °F 12.2 °F 10% 30.14 in 10.0 mi SW 8.1 mph 18.4 mph N/A   Overcast
12:15 PM 71.6 °F 12.2 °F 10% 30.13 in 10.0 mi SW 9.2 mph - N/A   Overcast
12:35 PM 73.4 °F 14.0 °F 10% 30.12 in 10.0 mi SW 5.8 mph - N/A   Overcast
12:55 PM 73.4 °F 14.0 °F 10% 30.11 in 10.0 mi SSW 5.8 mph - N/A   Overcast
1:15 PM 73.4 °F 14.0 °F 10% 30.10 in 10.0 mi SSW 10.4 mph 16.1 mph N/A   Overcast
1:35 PM 73.4 °F 15.8 °F 11% 30.08 in 10.0 mi SSW 10.4 mph 16.1 mph N/A   Mostly Cloudy
1:55 PM 77.0 °F 15.8 °F 10% 30.08 in 10.0 mi SSW 13.8 mph 23.0 mph N/A   Mostly Cloudy
2:15 PM 77.0 °F 17.6 °F 11% 30.07 in 10.0 mi SSW 12.7 mph 19.6 mph N/A   Mostly Cloudy
2:35 PM 73.4 °F 15.8 °F 11% 30.07 in 10.0 mi SSW 12.7 mph 20.7 mph N/A   Overcast
2:55 PM 75.2 °F 15.8 °F 11% 30.07 in 10.0 mi SSW 11.5 mph 18.4 mph N/A   Mostly Cloudy
3:15 PM 75.2 °F 15.8 °F 11% 30.07 in 10.0 mi SSW 10.4 mph - N/A   Overcast
3:35 PM 73.4 °F 15.8 °F 11% 30.07 in 10.0 mi SSW 10.4 mph - N/A   Overcast
3:55 PM 73.4 °F 15.8 °F 11% 30.08 in 10.0 mi SSW 10.4 mph 17.3 mph N/A   Overcast
4:15 PM 73.4 °F 14.0 °F 10% 30.08 in 10.0 mi SSW 9.2 mph - N/A   Overcast
4:35 PM 71.6 °F 14.0 °F 11% 30.08 in 10.0 mi SW 8.1 mph - N/A   Overcast
4:55 PM 71.6 °F 12.2 °F 10% 30.08 in 10.0 mi SSW 5.8 mph - N/A   Overcast
5:15 PM 71.6 °F 12.2 °F 10% 30.07 in 10.0 mi South 6.9 mph - N/A   Overcast
5:35 PM 69.8 °F 12.2 °F 11% 30.08 in 10.0 mi SSW 4.6 mph - N/A   Overcast
5:55 PM 69.8 °F 10.4 °F 10% 30.08 in 10.0 mi South 4.6 mph - N/A   Overcast
6:15 PM 68.0 °F 10.4 °F 11% 30.09 in 10.0 mi SSW 3.5 mph - N/A   Overcast
6:35 PM 68.0 °F 10.4 °F 11% 30.10 in 10.0 mi Calm Calm - N/A   Overcast
6:55 PM 66.2 °F 8.6 °F 11% 30.10 in 10.0 mi Calm Calm - N/A   Mostly Cloudy
7:15 PM 66.2 °F 8.6 °F 11% 30.11 in 10.0 mi Calm Calm - N/A   Mostly Cloudy
7:35 PM 64.4 °F 8.6 °F 11% 30.11 in 10.0 mi Calm Calm - N/A   Overcast
7:55 PM 64.4 °F 6.8 °F 10% 30.11 in 10.0 mi Calm Calm - N/A   Mostly Cloudy
8:15 PM 62.6 °F 6.8 °F 11% 30.12 in 10.0 mi Calm Calm - N/A   Overcast
8:35 PM 62.6 °F 6.8 °F 11% 30.12 in 10.0 mi Calm Calm - N/A   Mostly Cloudy
8:55 PM 62.6 °F 6.8 °F 11% 30.13 in 10.0 mi Calm Calm - N/A   Mostly Cloudy
9:15 PM 62.6 °F 6.8 °F 11% 30.13 in 10.0 mi NW 3.5 mph - N/A   Mostly Cloudy
9:35 PM 62.6 °F 6.8 °F 11% 30.14 in 10.0 mi Calm Calm - N/A   Mostly Cloudy
9:55 PM 62.6 °F 6.8 °F 11% 30.13 in 10.0 mi Calm Calm - N/A   Mostly Cloudy
10:15 PM 62.6 °F 6.8 °F 11% 30.13 in 10.0 mi Calm Calm - N/A   Mostly Cloudy
10:35 PM 62.6 °F 6.8 °F 11% 30.13 in 10.0 mi South 3.5 mph - N/A   Scattered Clouds
10:55 PM 60.8 °F 5.0 °F 11% 30.14 in 10.0 mi South 3.5 mph - N/A   Mostly Cloudy
11:15 PM 60.8 °F 5.0 °F 11% 30.13 in 10.0 mi South 3.5 mph - N/A   Mostly Cloudy
11:35 PM 60.8 °F 5.0 °F 11% 30.13 in 10.0 mi South 4.6 mph - N/A   Scattered Clouds
11:55 PM 60.8 °F 5.0 °F 11% 30.13 in 10.0 mi South 3.5 mph - N/A   Partly Cloudy